When you browse on this site, cookies collect data to enhance your experience and personalize the content and advertising you see.
Visit our Privacy Policy to learn more. By continuing to use the site, you agree to this use of cookies and data.
EN

Hourly Weather Vonyarcvashegy

Today, 10 July, Friday

Time Temperature Precipitation Wind Pressure Humidity
00:00 +20°C° 0 mm 2 mps 753 mmHg 76%
01:00 +19°C° 0 mm 2 mps 753 mmHg 79%
02:00 +18°C° 0 mm 2 mps 753 mmHg 82%
03:00 +18°C° 0 mm 2 mps 752 mmHg 84%
04:00 +18°C° 0 mm 1 mps 752 mmHg 87%
05:00 +19°C° 0 mm 2 mps 752 mmHg 81%
06:00 +20°C° 0 mm 2 mps 752 mmHg 75%
07:00 +23°C° 0 mm 2 mps 752 mmHg 70%
08:00 +25°C° 0 mm 2 mps 752 mmHg 63%
09:00 +27°C° 0 mm 2 mps 752 mmHg 57%
10:00 +29°C° 0 mm 3 mps 752 mmHg 51%
11:00 +30°C° 0 mm 3 mps 752 mmHg 47%
12:00 +33°C° 0 mm 3 mps 752 mmHg 43%
13:00 +34°C° 0 mm 3 mps 751 mmHg 39%
14:00 +34°C° 0 mm 4 mps 751 mmHg 39%
15:00 +35°C° 0 mm 4 mps 751 mmHg 39%
16:00 +35°C° 0 mm 4 mps 750 mmHg 39%
17:00 +33°C° 0 mm 4 mps 750 mmHg 47%
18:00 +30°C° 0 mm 3 mps 750 mmHg 54%
19:00 +28°C° 0 mm 3 mps 749 mmHg 61%
20:00 +26°C° 0 mm 3 mps 750 mmHg 65%
21:00 +25°C° 0 mm 3 mps 750 mmHg 68%
22:00 +24°C° 0 mm 3 mps 750 mmHg 72%
23:00 +23°C° 0 mm 2 mps 750 mmHg 75%

Tomorrow, 11 July, Saturday

Time Temperature Precipitation Wind Pressure Humidity
00:00 +21°C° 0 mm 2 mps 750 mmHg 79%
01:00 +22°C° 0 mm 1 mps 750 mmHg 82%
02:00 +20°C° 0 mm 2 mps 751 mmHg 84%
03:00 +20°C° 0 mm 2 mps 751 mmHg 86%
04:00 +19°C° 0 mm 3 mps 751 mmHg 88%
05:00 +21°C° 0 mm 3 mps 751 mmHg 84%
06:00 +22°C° 0 mm 3 mps 751 mmHg 80%
07:00 +24°C° 0 mm 3 mps 751 mmHg 76%
08:00 +25°C° 0 mm 3 mps 751 mmHg 72%
09:00 +27°C° 0 mm 3 mps 751 mmHg 68%
10:00 +28°C° 0 mm 3 mps 751 mmHg 63%
11:00 +28°C° 0 mm 5 mps 751 mmHg 64%
12:00 +27°C° 0 mm 7 mps 751 mmHg 64%
13:00 +26°C° 0 mm 8 mps 751 mmHg 64%
14:00 +24°C° 0.2 mm 9 mps 751 mmHg 65%
15:00 +23°C° 0.2 mm 9 mps 752 mmHg 66%
16:00 +21°C° 0.2 mm 10 mps 752 mmHg 68%
17:00 +19°C° 0.1 mm 10 mps 752 mmHg 70%
18:00 +18°C° 0.1 mm 9 mps 753 mmHg 73%
19:00 +17°C° 0.1 mm 9 mps 753 mmHg 76%
20:00 +16°C° 0.1 mm 8 mps 754 mmHg 78%
21:00 +15°C° 0.1 mm 8 mps 754 mmHg 80%
22:00 +15°C° 0.1 mm 8 mps 755 mmHg 81%
23:00 +15°C° 0 mm 8 mps 755 mmHg 80%

Day after tomorrow, 12 July, Sunday

Time Temperature Precipitation Wind Pressure Humidity
00:00 +15°C° 0 mm 7 mps 755 mmHg 78%
01:00 +14°C° 0 mm 7 mps 756 mmHg 76%
02:00 +14°C° 0 mm 7 mps 756 mmHg 73%
03:00 +14°C° 0 mm 6 mps 756 mmHg 70%
04:00 +14°C° 0 mm 6 mps 756 mmHg 67%
05:00 +15°C° 0 mm 7 mps 756 mmHg 65%
06:00 +15°C° 0 mm 7 mps 756 mmHg 62%
07:00 +16°C° 0 mm 8 mps 757 mmHg 59%
08:00 +18°C° 0 mm 8 mps 757 mmHg 54%
09:00 +20°C° 0 mm 8 mps 757 mmHg 50%
10:00 +21°C° 0 mm 8 mps 757 mmHg 46%
11:00 +22°C° 0 mm 8 mps 757 mmHg 44%
12:00 +23°C° 0 mm 7 mps 757 mmHg 43%
13:00 +24°C° 0 mm 7 mps 757 mmHg 41%
14:00 +24°C° 0 mm 6 mps 757 mmHg 42%
15:00 +24°C° 0 mm 6 mps 757 mmHg 42%
16:00 +25°C° 0 mm 5 mps 757 mmHg 43%
17:00 +22°C° 0 mm 4 mps 757 mmHg 49%
18:00 +21°C° 0 mm 4 mps 757 mmHg 55%
19:00 +20°C° 0 mm 3 mps 757 mmHg 61%
20:00 +18°C° 0 mm 2 mps 757 mmHg 65%
21:00 +17°C° 0 mm 2 mps 758 mmHg 69%
22:00 +15°C° 0 mm 2 mps 758 mmHg 73%
23:00 +15°C° 0 mm 2 mps 758 mmHg 76%

13 July, Monday

Time Temperature Precipitation Wind Pressure Humidity
00:00 +14°C° 0 mm 2 mps 758 mmHg 80%
01:00 +13°C° 0 mm 1 mps 758 mmHg 83%
02:00 +13°C° 0 mm 2 mps 757 mmHg 85%
03:00 +13°C° 0 mm 2 mps 757 mmHg 87%
04:00 +12°C° 0 mm 2 mps 757 mmHg 89%
05:00 +14°C° 0 mm 2 mps 757 mmHg 81%
06:00 +16°C° 0 mm 3 mps 757 mmHg 73%
07:00 +17°C° 0 mm 3 mps 757 mmHg 65%
08:00 +19°C° 0 mm 3 mps 757 mmHg 57%
09:00 +21°C° 0 mm 4 mps 757 mmHg 50%
10:00 +23°C° 0 mm 4 mps 757 mmHg 42%
11:00 +23°C° 0 mm 4 mps 757 mmHg 40%
12:00 +25°C° 0 mm 4 mps 756 mmHg 37%
13:00 +26°C° 0 mm 4 mps 756 mmHg 35%
14:00 +26°C° 0 mm 4 mps 755 mmHg 35%
15:00 +26°C° 0 mm 4 mps 755 mmHg 36%
16:00 +26°C° 0 mm 4 mps 755 mmHg 36%
17:00 +24°C° 0 mm 3 mps 754 mmHg 43%
18:00 +21°C° 0 mm 3 mps 754 mmHg 51%
19:00 +20°C° 0 mm 2 mps 754 mmHg 58%
20:00 +18°C° 0 mm 2 mps 755 mmHg 62%
21:00 +17°C° 0 mm 2 mps 755 mmHg 66%
22:00 +15°C° 0 mm 1 mps 755 mmHg 70%
23:00 +14°C° 0 mm 1 mps 755 mmHg 73%

14 July, Tuesday

Time Temperature Precipitation Wind Pressure Humidity
00:00 +14°C° 0 mm 1 mps 755 mmHg 76%
01:00 +13°C° 0 mm 1 mps 755 mmHg 79%
02:00 +13°C° 0 mm 2 mps 755 mmHg 82%
03:00 +13°C° 0 mm 2 mps 754 mmHg 84%
04:00 +12°C° 0 mm 2 mps 754 mmHg 87%
05:00 +14°C° 0 mm 2 mps 754 mmHg 80%
06:00 +16°C° 0 mm 2 mps 754 mmHg 73%
07:00 +18°C° 0 mm 2 mps 755 mmHg 67%
08:00 +20°C° 0 mm 2 mps 754 mmHg 59%
09:00 +21°C° 0 mm 2 mps 754 mmHg 52%
10:00 +24°C° 0 mm 2 mps 754 mmHg 45%
11:00 +25°C° 0 mm 2 mps 754 mmHg 42%
12:00 +26°C° 0 mm 1 mps 753 mmHg 39%
13:00 +27°C° 0 mm 1 mps 753 mmHg 36%
14:00 +27°C° 0 mm 1 mps 753 mmHg 36%
15:00 +27°C° 0 mm 1 mps 753 mmHg 36%
16:00 +27°C° 0 mm 1 mps 752 mmHg 36%
17:00 +25°C° 0 mm 1 mps 752 mmHg 42%
18:00 +24°C° 0 mm 1 mps 752 mmHg 48%
19:00 +22°C° 0 mm 1 mps 752 mmHg 54%
20:00 +21°C° 0 mm 1 mps 752 mmHg 59%
21:00 +19°C° 0 mm 1 mps 753 mmHg 64%
22:00 +18°C° 0 mm 1 mps 753 mmHg 68%
23:00 +16°C° 0 mm 1 mps 753 mmHg 72%

15 July, Wednesday

Time Temperature Precipitation Wind Pressure Humidity
00:00 +16°C° 0 mm 1 mps 753 mmHg 76%
01:00 +15°C° 0 mm 1 mps 753 mmHg 80%
02:00 +15°C° 0 mm 1 mps 753 mmHg 81%
03:00 +14°C° 0 mm 1 mps 753 mmHg 83%
04:00 +14°C° 0 mm 1 mps 753 mmHg 84%
05:00 +16°C° 0 mm 1 mps 753 mmHg 77%
06:00 +19°C° 0 mm 1 mps 754 mmHg 71%
07:00 +20°C° 0 mm 1 mps 754 mmHg 64%
08:00 +22°C° 0 mm 1 mps 754 mmHg 58%
09:00 +24°C° 0 mm 1 mps 754 mmHg 53%
10:00 +26°C° 0 mm 1 mps 754 mmHg 47%
11:00 +27°C° 0 mm 1 mps 754 mmHg 44%
12:00 +28°C° 0 mm 1 mps 753 mmHg 42%
13:00 +28°C° 0 mm 1 mps 753 mmHg 39%
14:00 +29°C° 0 mm 1 mps 753 mmHg 39%
15:00 +29°C° 0 mm 1 mps 753 mmHg 39%
16:00 +29°C° 0 mm 1 mps 752 mmHg 38%
17:00 +28°C° 0 mm 1 mps 752 mmHg 45%
18:00 +26°C° 0 mm 2 mps 752 mmHg 52%
19:00 +24°C° 0 mm 2 mps 752 mmHg 58%
20:00 +23°C° 0 mm 2 mps 753 mmHg 62%
21:00 +20°C° 0 mm 2 mps 753 mmHg 66%
22:00 +19°C° 0 mm 2 mps 753 mmHg 70%
23:00 +19°C° 0 mm 1 mps 753 mmHg 72%
Show more